When you browse on this site, cookies collect data to enhance your experience and personalize the content and advertising you see.
Visit our Privacy Policy to learn more. By continuing to use the site, you agree to this use of cookies and data.
  • In Hungary
  • List of Countries
  • For 7 days
  • Water Temperature
  • Weather Map
  • News
  • Weather Widgets
  • user-avatar
    Login

    Hourly Weather Novopavlovskiy

    Today, 20 October, Sunday

    Time Temperature Precipitation Wind Pressure Humidity
    00:00 +15°C° 0 mm 2 mps 762 mmHg 64%
    01:00 +14°C° 0 mm 2 mps 762 mmHg 66%
    02:00 +14°C° 0 mm 2 mps 762 mmHg 67%
    03:00 +13°C° 0 mm 2 mps 762 mmHg 71%
    04:00 +13°C° 0 mm 2 mps 762 mmHg 73%
    05:00 +12°C° 0 mm 2 mps 762 mmHg 74%
    06:00 +12°C° 0 mm 2 mps 763 mmHg 76%
    07:00 +13°C° 0 mm 2 mps 763 mmHg 72%
    08:00 +13°C° 0 mm 3 mps 763 mmHg 68%
    09:00 +14°C° 0 mm 3 mps 763 mmHg 65%
    10:00 +17°C° 0 mm 3 mps 763 mmHg 59%
    11:00 +18°C° 0 mm 3 mps 763 mmHg 54%
    12:00 +20°C° 0 mm 3 mps 763 mmHg 48%
    13:00 +20°C° 0 mm 3 mps 763 mmHg 45%
    14:00 +21°C° 0 mm 3 mps 763 mmHg 42%
    15:00 +22°C° 0 mm 3 mps 763 mmHg 39%
    16:00 +20°C° 0 mm 2 mps 763 mmHg 43%
    17:00 +19°C° 0 mm 2 mps 763 mmHg 47%
    18:00 +18°C° 0 mm 2 mps 763 mmHg 50%
    19:00 +17°C° 0 mm 2 mps 763 mmHg 53%
    20:00 +17°C° 0 mm 3 mps 763 mmHg 56%
    21:00 +16°C° 0 mm 3 mps 763 mmHg 58%
    22:00 +16°C° 0 mm 3 mps 763 mmHg 61%
    23:00 +14°C° 0 mm 3 mps 763 mmHg 64%

    Tomorrow, 21 October, Monday

    Time Temperature Precipitation Wind Pressure Humidity
    00:00 +14°C° 0 mm 3 mps 763 mmHg 67%
    01:00 +13°C° 0 mm 3 mps 763 mmHg 69%
    02:00 +13°C° 0 mm 3 mps 763 mmHg 72%
    03:00 +12°C° 0 mm 3 mps 763 mmHg 75%
    04:00 +12°C° 0 mm 3 mps 763 mmHg 76%
    05:00 +12°C° 0 mm 3 mps 763 mmHg 77%
    06:00 +11°C° 0 mm 3 mps 763 mmHg 79%
    07:00 +12°C° 0 mm 3 mps 764 mmHg 74%
    08:00 +13°C° 0 mm 3 mps 764 mmHg 69%
    09:00 +14°C° 0 mm 4 mps 764 mmHg 64%
    10:00 +17°C° 0 mm 4 mps 764 mmHg 57%
    11:00 +19°C° 0 mm 4 mps 764 mmHg 50%
    12:00 +21°C° 0 mm 4 mps 764 mmHg 43%
    13:00 +21°C° 0 mm 4 mps 764 mmHg 41%
    14:00 +22°C° 0 mm 3 mps 763 mmHg 39%
    15:00 +22°C° 0 mm 3 mps 763 mmHg 37%
    16:00 +21°C° 0 mm 3 mps 763 mmHg 42%
    17:00 +20°C° 0 mm 2 mps 763 mmHg 46%
    18:00 +18°C° 0 mm 2 mps 763 mmHg 50%
    19:00 +18°C° 0 mm 2 mps 763 mmHg 53%
    20:00 +17°C° 0 mm 2 mps 763 mmHg 56%
    21:00 +16°C° 0 mm 2 mps 763 mmHg 60%
    22:00 +16°C° 0 mm 2 mps 763 mmHg 62%
    23:00 +15°C° 0 mm 2 mps 763 mmHg 63%

    Day after tomorrow, 22 October, Tuesday

    Time Temperature Precipitation Wind Pressure Humidity
    00:00 +15°C° 0 mm 2 mps 763 mmHg 65%
    01:00 +14°C° 0 mm 2 mps 763 mmHg 67%
    02:00 +14°C° 0 mm 1 mps 763 mmHg 68%
    03:00 +14°C° 0 mm 1 mps 763 mmHg 70%
    04:00 +13°C° 0 mm 1 mps 763 mmHg 71%
    05:00 +13°C° 0 mm 1 mps 763 mmHg 72%
    06:00 +13°C° 0 mm 1 mps 763 mmHg 73%
    07:00 +14°C° 0 mm 1 mps 763 mmHg 69%
    08:00 +15°C° 0 mm 1 mps 763 mmHg 65%
    09:00 +15°C° 0 mm 1 mps 763 mmHg 61%
    10:00 +18°C° 0 mm 1 mps 763 mmHg 55%
    11:00 +19°C° 0 mm 1 mps 763 mmHg 50%
    12:00 +21°C° 0 mm 1 mps 763 mmHg 44%
    13:00 +21°C° 0 mm 1 mps 763 mmHg 43%
    14:00 +22°C° 0 mm 1 mps 763 mmHg 41%
    15:00 +22°C° 0 mm 1 mps 762 mmHg 39%
    16:00 +21°C° 0 mm 1 mps 762 mmHg 42%
    17:00 +20°C° 0 mm 1 mps 762 mmHg 46%
    18:00 +19°C° 0 mm 1 mps 762 mmHg 49%
    19:00 +17°C° 0 mm 0 mps 762 mmHg 50%
    20:00 +16°C° 0 mm 0 mps 762 mmHg 52%
    21:00 +16°C° 0 mm 0 mps 763 mmHg 54%
    22:00 +15°C° 0 mm 0 mps 762 mmHg 55%
    23:00 +16°C° 0 mm 1 mps 762 mmHg 57%

    23 October, Wednesday

    Time Temperature Precipitation Wind Pressure Humidity
    00:00 +15°C° 0 mm 1 mps 762 mmHg 59%
    01:00 +15°C° 0 mm 1 mps 762 mmHg 60%
    02:00 +15°C° 0 mm 1 mps 763 mmHg 62%
    03:00 +13°C° 0 mm 0 mps 763 mmHg 63%
    04:00 +14°C° 0 mm 1 mps 763 mmHg 64%
    05:00 +14°C° 0 mm 1 mps 763 mmHg 65%
    06:00 +13°C° 0 mm 1 mps 763 mmHg 66%
    07:00 +14°C° 0 mm 1 mps 763 mmHg 63%
    08:00 +15°C° 0 mm 1 mps 763 mmHg 61%
    09:00 +16°C° 0 mm 1 mps 763 mmHg 58%
    10:00 +17°C° 0 mm 2 mps 763 mmHg 54%
    11:00 +18°C° 0 mm 2 mps 763 mmHg 49%
    12:00 +20°C° 0 mm 2 mps 763 mmHg 45%
    13:00 +20°C° 0 mm 2 mps 763 mmHg 44%
    14:00 +21°C° 0 mm 2 mps 762 mmHg 42%
    15:00 +21°C° 0 mm 2 mps 762 mmHg 41%
    16:00 +21°C° 0 mm 1 mps 762 mmHg 44%
    17:00 +20°C° 0 mm 1 mps 762 mmHg 48%
    18:00 +19°C° 0 mm 1 mps 762 mmHg 51%
    19:00 +17°C° 0 mm 2 mps 762 mmHg 54%
    20:00 +17°C° 0 mm 2 mps 762 mmHg 56%
    21:00 +16°C° 0 mm 2 mps 762 mmHg 59%
    22:00 +16°C° 0 mm 2 mps 762 mmHg 61%
    23:00 +15°C° 0 mm 2 mps 762 mmHg 63%

    24 October, Thursday

    Time Temperature Precipitation Wind Pressure Humidity
    00:00 +14°C° 0 mm 2 mps 762 mmHg 66%
    01:00 +14°C° 0 mm 2 mps 762 mmHg 66%
    02:00 +14°C° 0 mm 1 mps 762 mmHg 67%
    03:00 +13°C° 0 mm 1 mps 761 mmHg 68%
    04:00 +13°C° 0 mm 2 mps 761 mmHg 70%
    05:00 +12°C° 0 mm 2 mps 761 mmHg 71%
    06:00 +12°C° 0 mm 2 mps 761 mmHg 73%
    07:00 +13°C° 0 mm 2 mps 761 mmHg 69%
    08:00 +13°C° 0 mm 3 mps 761 mmHg 66%
    09:00 +14°C° 0 mm 3 mps 762 mmHg 62%
    10:00 +16°C° 0 mm 3 mps 761 mmHg 55%
    11:00 +18°C° 0 mm 3 mps 761 mmHg 48%
    12:00 +19°C° 0 mm 4 mps 761 mmHg 40%
    13:00 +19°C° 0 mm 4 mps 761 mmHg 38%
    14:00 +20°C° 0 mm 3 mps 760 mmHg 36%
    15:00 +20°C° 0 mm 3 mps 760 mmHg 34%
    16:00 +19°C° 0 mm 3 mps 760 mmHg 38%
    17:00 +18°C° 0 mm 3 mps 760 mmHg 41%
    18:00 +17°C° 0 mm 3 mps 760 mmHg 45%
    19:00 +16°C° 0 mm 3 mps 760 mmHg 47%
    20:00 +14°C° 0 mm 3 mps 760 mmHg 50%
    21:00 +14°C° 0 mm 3 mps 760 mmHg 52%
    22:00 +13°C° 0 mm 3 mps 760 mmHg 55%
    23:00 +13°C° 0 mm 3 mps 759 mmHg 58%

    25 October, Friday

    Time Temperature Precipitation Wind Pressure Humidity
    00:00 +12°C° 0 mm 3 mps 759 mmHg 61%
    01:00 +12°C° 0 mm 3 mps 759 mmHg 63%
    02:00 +12°C° 0 mm 3 mps 759 mmHg 65%
    03:00 +11°C° 0 mm 3 mps 759 mmHg 67%
    04:00 +11°C° 0 mm 4 mps 759 mmHg 68%
    05:00 +11°C° 0 mm 4 mps 759 mmHg 68%
    06:00 +10°C° 0 mm 5 mps 759 mmHg 69%
    07:00 +10°C° 0 mm 5 mps 759 mmHg 66%
    08:00 +11°C° 0 mm 6 mps 759 mmHg 63%
    09:00 +11°C° 0 mm 6 mps 759 mmHg 60%
    10:00 +14°C° 0 mm 6 mps 759 mmHg 53%
    11:00 +15°C° 0 mm 6 mps 759 mmHg 46%
    12:00 +17°C° 0 mm 7 mps 759 mmHg 40%
    13:00 +17°C° 0 mm 7 mps 759 mmHg 39%
    14:00 +17°C° 0 mm 6 mps 759 mmHg 37%
    15:00 +19°C° 0 mm 6 mps 758 mmHg 36%
    16:00 +17°C° 0 mm 6 mps 758 mmHg 41%
    17:00 +16°C° 0 mm 5 mps 758 mmHg 47%
    18:00 +15°C° 0 mm 4 mps 758 mmHg 52%
    19:00 +15°C° 0 mm 4 mps 758 mmHg 58%
    20:00 +14°C° 0 mm 4 mps 758 mmHg 63%
    21:00 +14°C° 0 mm 4 mps 758 mmHg 69%
    22:00 +14°C° 0 mm 4 mps 758 mmHg 70%
    23:00 +14°C° 0 mm 4 mps 758 mmHg 71%
    Show more